When you browse on this site, cookies collect data to enhance your experience and personalize the content and advertising you see.
Visit our Privacy Policy to learn more. By continuing to use the site, you agree to this use of cookies and data.
  • In Hungary
  • List of Countries
  • For 7 days
  • Water Temperature
  • Satellite Maps
  • Weather Map
  • News
  • Weather Widgets
  • user-avatar
    Login

    Hourly Weather Zdzieszyn

    Today, 24 January, Thursday

    Time Temperature Precipitation Wind Pressure Humidity
    00:00 -9°C° 0 mm 4 mps 743 mmHg 66%
    01:00 -9°C° 0 mm 4 mps 743 mmHg 67%
    02:00 -9°C° 0 mm 4 mps 743 mmHg 68%
    03:00 -9°C° 0 mm 4 mps 743 mmHg 69%
    04:00 -9°C° 0 mm 4 mps 743 mmHg 69%
    05:00 -9°C° 0 mm 4 mps 744 mmHg 70%
    06:00 -10°C° 0 mm 4 mps 744 mmHg 71%
    07:00 -9°C° 0 mm 4 mps 745 mmHg 70%
    08:00 -9°C° 0 mm 4 mps 745 mmHg 69%
    09:00 -9°C° 0 mm 4 mps 745 mmHg 68%
    10:00 -9°C° 0 mm 4 mps 745 mmHg 67%
    11:00 -9°C° 0 mm 4 mps 745 mmHg 65%
    12:00 -8°C° 0 mm 5 mps 745 mmHg 63%
    13:00 -8°C° 0 mm 5 mps 745 mmHg 61%
    14:00 -8°C° 0 mm 5 mps 745 mmHg 63%
    15:00 -8°C° 0 mm 5 mps 745 mmHg 64%
    16:00 -8°C° 0 mm 5 mps 745 mmHg 66%
    17:00 -10°C° 0 mm 5 mps 745 mmHg 67%
    18:00 -10°C° 0 mm 5 mps 745 mmHg 69%
    19:00 -10°C° 0 mm 6 mps 745 mmHg 71%
    20:00 -10°C° 0 mm 5 mps 745 mmHg 71%
    21:00 -10°C° 0 mm 5 mps 746 mmHg 71%
    22:00 -10°C° 0 mm 5 mps 746 mmHg 72%
    23:00 -10°C° 0 mm 5 mps 746 mmHg 72%

    Tomorrow, 25 January, Friday

    Time Temperature Precipitation Wind Pressure Humidity
    00:00 -10°C° 0 mm 5 mps 745 mmHg 73%
    01:00 -10°C° 0 mm 5 mps 745 mmHg 74%
    02:00 -10°C° 0.3 mm 5 mps 745 mmHg 77%
    03:00 -10°C° 0.3 mm 5 mps 745 mmHg 81%
    04:00 -11°C° 0.3 mm 5 mps 745 mmHg 84%
    05:00 -11°C° 0.3 mm 5 mps 745 mmHg 85%
    06:00 -10°C° 0.3 mm 4 mps 745 mmHg 85%
    07:00 -10°C° 0.3 mm 4 mps 744 mmHg 86%
    08:00 -9°C° 0.2 mm 4 mps 745 mmHg 85%
    09:00 -9°C° 0.2 mm 4 mps 745 mmHg 84%
    10:00 -9°C° 0.2 mm 4 mps 745 mmHg 83%
    11:00 -8°C° 0.1 mm 3 mps 745 mmHg 81%
    12:00 -7°C° 0.1 mm 2 mps 745 mmHg 79%
    13:00 -6°C° 0.1 mm 2 mps 744 mmHg 77%
    14:00 -4°C° 0 mm 1 mps 744 mmHg 77%
    15:00 -4°C° 0 mm 1 mps 744 mmHg 77%
    16:00 -5°C° 0 mm 0 mps 744 mmHg 78%
    17:00 -4°C° 0 mm 1 mps 744 mmHg 79%
    18:00 -4°C° 0 mm 1 mps 744 mmHg 81%
    19:00 -6°C° 0 mm 2 mps 745 mmHg 82%
    20:00 -6°C° 0 mm 2 mps 744 mmHg 84%
    21:00 -6°C° 0 mm 2 mps 744 mmHg 85%
    22:00 -8°C° 0 mm 3 mps 744 mmHg 87%
    23:00 -8°C° 0 mm 3 mps 744 mmHg 86%

    Day after tomorrow, 26 January, Saturday

    Time Temperature Precipitation Wind Pressure Humidity
    00:00 -8°C° 0 mm 3 mps 743 mmHg 85%
    01:00 -8°C° 0 mm 3 mps 743 mmHg 84%
    02:00 -8°C° 0 mm 3 mps 742 mmHg 84%
    03:00 -8°C° 0 mm 3 mps 742 mmHg 83%
    04:00 -8°C° 0 mm 3 mps 741 mmHg 83%
    05:00 -8°C° 0 mm 3 mps 740 mmHg 82%
    06:00 -7°C° 0 mm 3 mps 740 mmHg 81%
    07:00 -8°C° 0 mm 4 mps 739 mmHg 81%
    08:00 -8°C° 0.2 mm 4 mps 738 mmHg 83%
    09:00 -7°C° 0.2 mm 4 mps 737 mmHg 86%
    10:00 -7°C° 0.2 mm 5 mps 736 mmHg 88%
    11:00 -6°C° 0.4 mm 5 mps 736 mmHg 89%
    12:00 -6°C° 0.4 mm 5 mps 735 mmHg 89%
    13:00 -5°C° 0.4 mm 5 mps 734 mmHg 90%
    14:00 -4°C° 0.3 mm 4 mps 734 mmHg 91%
    15:00 -3°C° 0.3 mm 4 mps 734 mmHg 93%
    16:00 -3°C° 0.3 mm 4 mps 733 mmHg 95%
    17:00 -3°C° 0.1 mm 4 mps 734 mmHg 95%
    18:00 -3°C° 0.1 mm 4 mps 734 mmHg 95%
    19:00 -3°C° 0.1 mm 4 mps 734 mmHg 95%
    20:00 -4°C° 0 mm 4 mps 735 mmHg 94%
    21:00 -5°C° 0 mm 3 mps 735 mmHg 94%
    22:00 -5°C° 0 mm 3 mps 735 mmHg 94%
    23:00 -5°C° 0 mm 2 mps 736 mmHg 94%

    27 January, Sunday

    Time Temperature Precipitation Wind Pressure Humidity
    00:00 -5°C° 0 mm 2 mps 736 mmHg 95%
    01:00 -4°C° 0 mm 1 mps 736 mmHg 96%
    02:00 -4°C° 0 mm 1 mps 736 mmHg 96%
    03:00 -4°C° 0 mm 1 mps 736 mmHg 96%
    04:00 -6°C° 0 mm 1 mps 736 mmHg 96%
    05:00 -6°C° 0 mm 1 mps 736 mmHg 95%
    06:00 -7°C° 0 mm 2 mps 735 mmHg 95%
    07:00 -7°C° 0 mm 2 mps 735 mmHg 94%
    08:00 -7°C° 0 mm 3 mps 735 mmHg 93%
    09:00 -7°C° 0 mm 4 mps 735 mmHg 92%
    10:00 -7°C° 0 mm 4 mps 734 mmHg 91%
    11:00 -5°C° 0.3 mm 4 mps 734 mmHg 91%
    12:00 -5°C° 0.3 mm 5 mps 733 mmHg 92%
    13:00 -5°C° 0.3 mm 5 mps 733 mmHg 93%
    14:00 -4°C° 0.6 mm 5 mps 733 mmHg 93%
    15:00 -3°C° 0.6 mm 4 mps 732 mmHg 94%
    16:00 -2°C° 0.6 mm 4 mps 732 mmHg 95%
    17:00 -2°C° 0.2 mm 4 mps 732 mmHg 95%
    18:00 -1°C° 0.2 mm 3 mps 732 mmHg 95%
    19:00 -1°C° 0.2 mm 3 mps 732 mmHg 95%
    20:00 0°C° 0.2 mm 3 mps 732 mmHg 95%
    21:00 0°C° 0.2 mm 3 mps 731 mmHg 95%
    22:00 0°C° 0.2 mm 3 mps 731 mmHg 95%
    23:00 -1°C° 0 mm 3 mps 731 mmHg 95%

    28 January, Monday

    Time Temperature Precipitation Wind Pressure Humidity
    00:00 -1°C° 0 mm 3 mps 731 mmHg 94%
    01:00 -1°C° 0 mm 3 mps 731 mmHg 93%
    02:00 -1°C° 0.3 mm 3 mps 731 mmHg 94%
    03:00 -1°C° 0.3 mm 3 mps 730 mmHg 94%
    04:00 -1°C° 0.3 mm 2 mps 730 mmHg 94%
    05:00 -1°C° 0.1 mm 2 mps 730 mmHg 93%
    06:00 -1°C° 0.1 mm 2 mps 730 mmHg 93%
    07:00 -2°C° 0.1 mm 2 mps 730 mmHg 92%
    08:00 -1°C° 0.2 mm 2 mps 730 mmHg 93%
    09:00 -1°C° 0.2 mm 2 mps 730 mmHg 94%
    10:00 0°C° 0.2 mm 3 mps 730 mmHg 95%
    11:00 +1°C° 0.1 mm 2 mps 730 mmHg 96%
    12:00 +1°C° 0.1 mm 2 mps 730 mmHg 98%
    13:00 +1°C° 0.1 mm 2 mps 730 mmHg 99%
    14:00 +1°C° 0.1 mm 2 mps 730 mmHg 98%
    15:00 +1°C° 0.1 mm 2 mps 730 mmHg 97%
    16:00 +1°C° 0.1 mm 2 mps 730 mmHg 95%
    17:00 -1°C° 0 mm 2 mps 730 mmHg 94%
    18:00 -1°C° 0 mm 2 mps 730 mmHg 93%
    19:00 -1°C° 0 mm 2 mps 730 mmHg 91%
    20:00 -1°C° 0 mm 2 mps 730 mmHg 92%
    21:00 -1°C° 0 mm 2 mps 730 mmHg 92%
    22:00 -1°C° 0 mm 2 mps 730 mmHg 92%
    23:00 -1°C° 0.3 mm 3 mps 730 mmHg 92%

    29 January, Tuesday

    Time Temperature Precipitation Wind Pressure Humidity
    00:00 0°C° 0.3 mm 3 mps 730 mmHg 92%
    01:00 -1°C° 0.3 mm 4 mps 731 mmHg 92%
    02:00 -1°C° 0.1 mm 4 mps 731 mmHg 92%
    03:00 -1°C° 0.1 mm 5 mps 731 mmHg 92%
    04:00 -2°C° 0.1 mm 6 mps 732 mmHg 91%
    05:00 -3°C° 0 mm 7 mps 732 mmHg 90%
    06:00 -4°C° 0 mm 8 mps 733 mmHg 88%
    07:00 -4°C° 0 mm 9 mps 734 mmHg 86%
    08:00 -5°C° 0 mm 9 mps 735 mmHg 85%
    09:00 -5°C° 0 mm 9 mps 736 mmHg 84%
    10:00 -5°C° 0 mm 9 mps 737 mmHg 82%
    11:00 -5°C° 0.1 mm 9 mps 738 mmHg 82%
    12:00 -6°C° 0.1 mm 8 mps 738 mmHg 81%
    13:00 -6°C° 0.1 mm 8 mps 739 mmHg 80%
    14:00 -6°C° 0 mm 7 mps 740 mmHg 81%
    15:00 -5°C° 0 mm 6 mps 740 mmHg 81%
    16:00 -6°C° 0 mm 5 mps 741 mmHg 81%
    17:00 -5°C° 0 mm 4 mps 741 mmHg 83%
    18:00 -6°C° 0 mm 3 mps 741 mmHg 85%
    19:00 -6°C° 0 mm 3 mps 742 mmHg 87%
    20:00 -6°C° 0 mm 3 mps 742 mmHg 88%
    21:00 -6°C° 0 mm 3 mps 742 mmHg 88%
    22:00 -5°C° 0 mm 3 mps 742 mmHg 88%
    23:00 -6°C° 0 mm 3 mps 742 mmHg 88%
    Show more